#timestamp,LO_Frequency,Hit,StdDev 
1575435615.2,286046998.3,N
1575435635.0,286046999.6,N
1575435635.9,286046999.6,N
1575435655.8,286046997.7,N
1575435675.6,286046997.1,N
1575435695.5,286046995.3,Y
1575435715.3,286046996.3,P
1575435735.1,286046997.8,N
1575435755.9,286046997.7,N
1575435775.7,286046995.4,Y
1575435795.5,286047001.1,P
1575435815.4,286047000.3,N
1575435835.2,286047002.6,N
1575435855.1,286047002.1,N
1575435856.0,286047002.1,N
1575435875.8,286047001.3,N
1575435895.6,286047004.2,N
1575435915.5,286047002.9,N
1575435935.3,286047001.6,N
1575435955.2,286047002.8,N
1575435975.9,286046999.9,N
1575435995.7,286047001.1,N
1575436015.6,286047000.3,N
1575436035.4,286046998.9,N
1575436055.2,286046996.9,N
1575436075.1,286046995.1,N
1575436076.0,286046995.1,N
1575436095.8,286046996.6,N
1575436115.7,286046999.3,N
1575436135.5,286046998.2,N
1575436155.3,286047000.8,N
1575436175.2,286046998.1,N
1575436195.0,286047001.2,N
1575436195.9,286047001.2,N
1575436215.8,286046998.2,N
1575436235.6,286046999.6,N
1575436255.4,286046998.8,N
1575436275.3,286046998.4,N
1575436295.1,286046998.5,N
1575436315.8,286047001.1,N
1575436335.7,286047001.2,N
1575436355.5,286047001.0,N
1575436375.4,286046998.4,N
1575436395.2,286047000.8,N
1575436415.0,286047001.4,N
1575436415.9,286047001.4,N
1575436435.8,286047002.5,N
1575436455.6,286047000.1,N
1575436475.4,286047000.2,N
1575436495.3,286047001.0,N
1575436515.1,286047000.3,N
1575436535.9,286047000.1,N
1575436555.7,286047002.8,N
1575436575.5,286047000.5,N
1575436595.4,286046999.7,N
1575436615.2,286046999.8,N
1575436635.0,286047002.3,N
1575436636.0,286047002.3,N
1575436655.8,286047002.4,N
1575436675.6,286047001.9,N
1575436695.5,286047000.5,N
1575436715.3,286047001.4,N
1575436735.1,286047004.0,Y
1575436755.9,286047004.1,P
1575436775.7,286047002.1,N
1575436795.6,286047002.4,N
1575436815.4,286046998.1,N
1575436835.2,286046998.7,N
1575436855.1,286046996.9,N
1575436856.0,286046996.9,N
1575436875.8,286046997.3,N
1575436895.6,286046999.3,N
1575436915.5,286046998.9,N
1575436935.3,286046999.0,N
1575436955.2,286046999.4,N
1575436975.9,286047000.0,N
1575436995.7,286047002.0,N
1575437015.6,286047002.3,N
1575437035.4,286047000.0,N
1575437055.2,286046998.2,N
1575437075.1,286046998.3,N
1575437076.0,286046998.3,N
1575437095.8,286046996.5,N
1575437115.7,286046996.8,N
1575437135.5,286046998.9,N
1575437155.3,286046999.5,N
1575437175.2,286046999.1,N
1575437195.9,286046998.0,N
1575437215.7,286046997.0,N
1575437235.6,286046994.9,N
1575437255.4,286046997.4,N
1575437275.2,286046999.6,N
1575437295.1,286047001.2,N
1575437296.0,286047001.2,N
1575437315.8,286046998.3,N
1575437335.7,286046999.0,N
1575437355.5,286046997.6,N
1575437375.3,286046999.0,N
1575437395.2,286046998.5,N
1575437415.0,286046998.4,N
1575437415.9,286046998.4,N
1575437435.8,286046997.2,N
1575437455.6,286046997.5,N
1575437475.4,286046999.3,N
1575437495.3,286046998.6,N
1575437515.1,286047001.2,N
1575437535.8,286047000.7,N
1575437555.7,286047000.0,N
1575437575.5,286047000.0,N
1575437595.4,286046999.9,N
1575437615.2,286046998.9,N
1575437635.0,286047000.3,N
1575437635.9,286047000.3,N
1575437655.8,286046998.6,N
1575437675.6,286046996.5,N
1575437695.4,286046999.3,N
1575437715.3,286046998.8,N
1575437735.1,286046999.4,N
1575437755.9,286046998.7,N
1575437775.7,286046997.7,N
1575437795.5,286046997.1,N
1575437815.4,286046998.7,N
1575437835.2,286046998.6,N
1575437855.0,286046999.3,N
1575437855.9,286046999.3,N
1575437875.8,286046998.8,N
1575437895.6,286046998.9,N
1575437915.5,286046998.9,N
1575437935.3,286046999.2,N
1575437955.1,286046997.2,N
1575437975.9,286046997.9,N
1575437995.7,286046998.8,N
1575438015.5,286046998.1,N
1575438035.4,286047000.2,N
1575438055.2,286046999.2,N
1575438075.1,286046999.3,N
1575438076.0,286046999.3,N
1575438095.8,286047000.8,N
1575438115.6,286047000.6,N
1575438135.5,286047002.7,N
1575438155.3,286046999.8,N
1575438175.1,286047000.9,N
1575438195.9,286047002.5,N
1575438215.7,286047002.2,N
1575438235.6,286047002.3,N
1575438255.4,286047002.0,N
1575438275.2,286047002.8,N
1575438295.1,286047002.7,N
1575438296.0,286047002.7,N
1575438315.8,286047001.0,N
1575438335.6,286046998.2,N
1575438355.5,286046998.9,N
1575438375.3,286046999.3,N
1575438395.2,286046999.5,N
1575438415.9,286047000.8,N
1575438435.7,286046998.4,N
1575438455.6,286047002.4,N
1575438475.4,286047002.6,N
1575438495.2,286047005.1,N
1575438515.1,286047003.5,N
1575438516.0,286047003.5,N
1575438535.8,286047005.1,N
1575438555.7,286047003.6,N
1575438575.5,286047002.4,N
1575438595.3,286047000.3,N
1575438615.2,286046998.3,N
1575438635.0,286046998.7,N
1575438635.9,286046998.7,N
1575438655.7,286047000.7,N
1575438675.6,286046998.6,N
1575438695.4,286047000.6,N
1575438715.3,286047002.8,N
1575438735.1,286046999.6,N
1575438736.0,286046999.6,N
1575438755.8,286046998.6,N
1575438775.7,286046998.7,N
1575438795.5,286046999.4,N
1575438815.3,286046996.6,N
1575438835.2,286046996.6,N
1575438855.0,286046999.0,N
1575438855.9,286046999.0,N
1575438875.8,286046996.8,N
1575438895.6,286046997.6,N
1575438915.4,286046996.7,N
1575438935.3,286046997.1,N
1575438955.1,286046996.6,N
1575438975.9,286046996.5,N
1575438995.7,286046998.6,N
1575439015.5,286046996.7,N
1575439035.4,286046997.2,N
1575439055.2,286046996.7,N
1575439075.0,286046995.0,N
1575439075.9,286046995.0,N
1575439095.8,286046997.7,N
1575439115.6,286046997.0,N
1575439135.5,286046998.7,N
1575439155.3,286046999.3,N
1575439175.1,286046996.6,N
1575439195.9,286046997.0,N
